Location: W�rzburg
(49.7529°N, 9.8822°E)
Time: 16:51:47
(UTC+02:00)

ELECTRON R/B - Visible Passes

Search period start: 21 May 2018 00:00
Search period end: 31 May 2018 00:00
Orbit: 285 x 480 km, 82.9° (Epoch: 20 May)

Date Brightness Start Highest point End Pass type
(mag) Time Alt. Az. Time Alt. Az. Time Alt. Az.
21 May 7.5 23:04:13 10° WNW 23:04:52 11° W 23:05:31 10° WSW visible
22 May 4.8 22:06:16 10° NNW 22:08:42 59° W 22:11:05 10° S visible
23 May 7.4 22:43:44 10° WNW 22:44:50 12° W 22:45:56 10° WSW visible
25 May 7.3 22:23:06 10° NW 22:24:31 14° W 22:25:57 10° SW visible
27 May 7.3 22:02:12 10° NW 22:03:53 17° W 22:05:36 10° SW visible
